CZ-6A DEB

Satellite information

Favourite Embed

Satellite Type and Status

DEBRISIN ORBIT

Key statistics

Satellite CZ-6A DEB at a glance.

Uptime

1129

Days in orbit

Revolutions

≈ 14.1

Per day

Orbit

SSO

Sun Synchronous Orbit

Inclination

98.9

Latest

Satellite identification and parameters

Extended collection of information and parameters for CZ-6A DEB.

Object identification

Identified? True

Debris? True

Object name: CZ-6A DEB

International designator: 2022-151ACX

Object number (NORAD): 56279

Object ID (CCSDS): 56279

Country: PEOPLES REPUBLIC OF CHINA (PRC)

Current information (Y/N): Y

RCS size: SMALL

Orbital parameters

Period: 102.471 minutes

Inclination: 98.8926 deg

SMA: 7253.715 km

Apoapsis: 926.076 km

Periapsis: 825.084 km

RAAN: 341.8224 deg

Eccentricy: 0.0069614

Argument of periapsis: 182.4436 deg

Mean anomaly: 177.6402 deg

Mean motion: 14.05277198 rev/day

Mean motion (dot): 0.00000433 rev/day2

B* drag term: 0.00028828 1/REarth

Two-line elements (TLE)

Creation date: Dec. 12, 2025, 7:16 a.m.

Reference frame: TEME

Reference center: EARTH

Epoch: Dec. 11, 2025, 11:25 p.m. UTC

TLE line 0: 0 CZ-6A DEB

TLE line 1: 1 56279U 22151ACX 25345.97586022 .00000433 00000-0 28828-3 0 9999

TLE line 2: 2 56279 98.8926 341.8224 0069614 182.4436 177.6402 14.05277198140063

Live tracking on map

Real-time ground track for satellite CZ-6A DEB.

In-orbit conjunctions

A list of the most updated potential collisions computed for object CZ-6A DEB.

Target Orbit TCA Probability of collision Miss distance Type
METEOR 1-17 DEB LEO 2025-11-20 07:30:39 0.0001728881 97.0 (m) DEBRIS
COSMOS 1375 DEB LEO 2025-06-07 07:32:23 0.0003030702 103.0 (m) DEBRIS

Associated space launch

Chinese satellite reported for atmospheric/ocean/environmental/spatial parameter research purposes, details TBD.

CZ-6A DEB was lifted into orbit during the mission ‘Long March 6A | Yunhai 3’, on board a Long March 6A space rocket.

The launch took place on Nov. 11, 2022, 10:52 p.m. from Launch Complex 9A.

For more information about the launch, click the button.

Launch to space Long March 6A | Yunhai 3
Long March 6A | Yunhai 3

Agency: N/A

Status: Launch Successful

Launch date: Nov. 11, 2022, 10:52 p.m. UTC

Rocket: Long March 6A

Launch pad: Launch Complex 9A

Location: Taiyuan Satellite Launch Center, People's Republic of China

...

Latest news about this satellite

There are no fresh news available about this satellite. Check back as we update our databases every day.


Newsletter sign-up

Weekly statistics, charts and insights to help you stay on top of the space industry.